FW7016 Weather Reports


Display with metric or nautical units.
time (UTC)temp
F
wind
direction
speed
MPH
gust
MPH
rain 1hr
in
rain 24hr
in
rain mn
in
humidity
%
barometer
mb
20260904111925 55 196 1.0 2.0 0.00 0.00 0.00 77 1017.5
20260904111420 54 286 3.0 3.0 0.00 0.00 0.00 78 1017.5
20260904110917 56 200 1.0 3.0 0.00 0.00 0.00 75 1017.4
20260904110415 57 211 2.0 2.0 0.00 0.00 0.00 74 1017.6
20260904105910 57 257 2.0 5.0 0.00 0.00 0.00 74 1017.7
20260904105406 56 199 1.0 2.0 0.00 0.00 0.00 75 1017.4
20260904104901 56 218 2.0 3.0 0.00 0.00 0.00 75 1017.5
20260904104355 57 193 0.0 1.0 0.00 0.00 0.00 75 1017.1
20260904103853 57 202 1.0 1.0 0.00 0.00 0.00 75 1017.3
20260904103353 58 198 1.0 2.0 0.00 0.00 0.00 74 1017.4
20260904102849 59 224 2.0 3.0 0.00 0.00 0.00 72 1017.3
20260904102349 59 208 2.0 2.0 0.00 0.00 0.00 71 1017.6
20260904101839 59 199 1.0 5.0 0.00 0.00 0.00 71 1017.4
20260904101336 59 220 2.0 7.0 0.00 0.00 0.00 72 1017.4
20260904100831 59 285 5.0 7.0 0.00 0.00 0.00 72 1017.6
20260904100327 59 263 6.0 9.0 0.00 0.00 0.00 73 1017.6
20260904095822 60 253 6.0 8.0 0.00 0.00 0.00 73 1017.4
20260904095322 60 286 7.0 8.0 0.00 0.00 0.00 73 1017.5
20260904094818 60 242 2.0 3.0 0.00 0.00 0.00 73 1017.3
20260904094312 61 217 5.0 7.0 0.00 0.00 0.00 73 1017.4
20260904093809 62 289 7.0 8.0 0.00 0.00 0.00 72 1017.3
20260904093309 63 192 5.0 8.0 0.00 0.00 0.00 69 1017.0
20260904092804 63 171 8.0 10.0 0.00 0.00 0.00 69 1016.8
20260904092301 63 176 9.0 11.0 0.00 0.00 0.00 69 1016.7
20260904091756 63 162 8.0 13.0 0.00 0.00 0.00 69 1016.3
20260904091251 62 112 10.0 13.0 0.00 0.00 0.00 70 1016.2
20260904090746 62 158 10.0 13.0 0.00 0.00 0.00 70 1016.2
20260904090242 63 151 11.0 15.0 0.00 0.00 0.00 69 1016.3
20260904085737 62 151 11.0 15.0 0.00 0.00 0.00 69 1016.4
20260904085232 62 150 11.0 14.0 0.00 0.00 0.00 69 1016.4
20260904084726 62 153 9.0 11.0 0.00 0.00 0.00 70 1016.6
20260904084222 61 151 8.0 10.0 0.00 0.00 0.00 70 1016.6
20260904083719 61 147 6.0 7.0 0.00 0.00 0.00 71 1016.7
20260904083215 60 142 5.0 7.0 0.00 0.00 0.00 70 1016.9
20260904082714 60 150 4.0 5.0 0.00 0.00 0.00 70 1016.9
20260904082210 60 176 4.0 5.0 0.00 0.00 0.00 71 1016.9
20260904081659 60 154 3.0 5.0 0.00 0.00 0.00 70 1016.9
20260904081154 61 158 4.0 5.0 0.00 0.00 0.00 69 1017.0
20260904080650 62 157 3.0 5.0 0.00 0.00 0.00 67 1017.0
20260904080146 62 144 4.0 6.0 0.00 0.00 0.00 66 1017.3
20260904075643 62 158 5.0 6.0 0.00 0.00 0.00 67 1017.4
20260904075142 61 151 4.0 5.0 0.00 0.00 0.00 67 1017.5
20260904074636 62 157 3.0 5.0 0.00 0.00 0.00 66 1017.3
20260904074131 63 164 4.0 5.0 0.00 0.00 0.00 65 1017.7
20260904073626 63 158 4.0 6.0 0.00 0.00 0.00 64 1017.6
20260904073122 63 167 4.0 5.0 0.00 0.00 0.00 64 1017.4
20260904072618 63 171 4.0 6.0 0.00 0.00 0.00 63 1017.5
20260904072113 63 177 4.0 6.0 0.00 0.00 0.00 63 1017.6
20260904071609 62 175 6.0 7.0 0.00 0.00 0.00 64 1017.5
20260904071103 61 198 4.0 5.0 0.00 0.00 0.00 68 1017.9
20260904070603 62 201 4.0 6.0 0.00 0.00 0.00 67 1017.7
20260904070058 63 182 4.0 5.0 0.00 0.00 0.00 64 1018.1
20260904065552 63 171 5.0 6.0 0.00 0.00 0.00 63 1017.7
20260904065049 63 174 3.0 5.0 0.00 0.00 0.00 63 1017.5
20260904064544 63 167 1.0 5.0 0.00 0.00 0.00 62 1017.5
20260904064044 63 173 4.0 6.0 0.00 0.00 0.00 63 1017.6
20260904063540 62 186 5.0 6.0 0.00 0.00 0.00 64 1017.7
20260904063035 62 201 5.0 6.0 0.00 0.00 0.00 66 1017.5
20260904062532 62 202 4.0 5.0 0.00 0.00 0.00 66 1017.6
20260904062027 62 212 4.0 5.0 0.00 0.00 0.00 66 1017.7
20260904061522 63 210 4.0 5.0 0.00 0.00 0.00 63 1017.6
20260904061013 63 206 4.0 6.0 0.00 0.00 0.00 62 1017.5
20260904060509 64 206 3.0 3.0 0.00 0.00 0.00 61 1017.5
20260904060005 65 181 4.0 6.0 0.00 0.00 0.00 59 1017.5
20260904055500 66 183 5.0 6.0 0.00 0.00 0.00 57 1017.5
20260904054955 66 177 3.0 5.0 0.00 0.00 0.00 57 1017.4
20260904054451 68 157 4.0 5.0 0.00 0.00 0.00 55 1017.4
20260904053947 68 163 1.0 3.0 0.00 0.00 0.00 53 1017.1
20260904053446 66 169 0.0 2.0 0.00 0.00 0.00 54 1017.3
20260904052942 64 172 2.0 2.0 0.00 0.00 0.00 58 1017.4
20260904052438 63 187 0.0 0.0 0.00 0.00 0.00 59 1017.5
20260904051934 63 179 0.0 0.0 0.00 0.00 0.00 60 1017.4
20260904051430 62 179 0.0 0.0 0.00 0.00 0.00 60 1017.5
20260904050929 62 186 0.0 0.0 0.00 0.00 0.00 62 1017.5
20260904050426 62 186 0.0 0.0 0.00 0.00 0.00 63 1017.7
20260904045926 62 186 0.0 0.0 0.00 0.00 0.00 62 1017.4
20260904045421 62 186 0.0 0.0 0.00 0.00 0.00 63 1017.4
20260904044920 63 186 0.0 0.0 0.00 0.00 0.00 62 1017.5
20260904044417 63 187 0.0 0.0 0.00 0.00 0.00 63 1017.5
20260904043913 64 186 0.0 0.0 0.00 0.00 0.00 62 1017.5
20260904043410 64 186 0.0 0.0 0.00 0.00 0.00 58 1017.4
20260904042905 63 186 0.0 0.0 0.00 0.00 0.00 60 1017.1
20260904042401 63 185 0.0 0.0 0.00 0.00 0.00 63 1017.5
20260904041855 63 190 0.0 0.0 0.00 0.00 0.00 63 1017.5
20260904041352 63 208 0.0 0.0 0.00 0.00 0.00 64 1017.5
20260904040848 64 200 0.0 0.0 0.00 0.00 0.00 62 1017.4
20260904040342 64 191 0.0 0.0 0.00 0.00 0.00 61 1017.5
20260904035838 63 177 0.0 0.0 0.00 0.00 0.00 61 1017.4
20260904035334 64 178 0.0 0.0 0.00 0.00 0.00 63 1017.7
20260904034833 65 191 0.0 0.0 0.00 0.00 0.00 59 1017.6
20260904034329 64 193 0.0 0.0 0.00 0.00 0.00 61 1017.5
20260904033825 64 190 0.0 0.0 0.00 0.00 0.00 61 1017.4
20260904033321 64 199 0.0 0.0 0.00 0.00 0.00 61 1017.5
20260904032817 65 196 0.0 0.0 0.00 0.00 0.00 59 1017.4
20260904032317 65 189 0.0 0.0 0.00 0.00 0.00 59 1017.5
20260904031811 66 188 0.0 0.0 0.00 0.00 0.00 57 1017.6
20260904031306 66 173 0.0 0.0 0.00 0.00 0.00 56 1017.5
20260904030802 68 154 0.0 0.0 0.00 0.00 0.00 55 1017.3
20260904030258 68 138 1.0 3.0 0.00 0.00 0.00 53 1017.3
20260904025754 68 143 0.0 0.0 0.00 0.00 0.00 53 1017.1
20260904025249 68 139 4.0 5.0 0.00 0.00 0.00 53 1017.3
20260904024743 69 137 5.0 6.0 0.00 0.00 0.00 52 1017.0
20260904024239 69 138 5.0 5.0 0.00 0.00 0.00 51 1017.1
20260904023735 69 133 5.0 5.0 0.00 0.00 0.00 51 1017.0
20260904023231 69 136 5.0 6.0 0.00 0.00 0.00 51 1017.0
20260904022724 69 138 4.0 6.0 0.00 0.00 0.00 50 1016.9
20260904022222 69 148 4.0 6.0 0.00 0.00 0.00 51 1017.1
20260904021717 70 141 5.0 6.0 0.00 0.00 0.00 50 1016.8
20260904021212 70 131 4.0 5.0 0.00 0.00 0.00 50 1017.1
20260904020708 69 150 3.0 3.0 0.00 0.00 0.00 50 1017.3
20260904020207 70 145 3.0 3.0 0.00 0.00 0.00 52 1016.8
20260904015706 70 149 3.0 5.0 0.00 0.00 0.00 51 1016.8
20260904015207 71 144 3.0 5.0 0.00 0.00 0.00 51 1016.8
20260904014706 71 152 4.0 5.0 0.00 0.00 0.00 49 1016.8
20260904014201 72 149 4.0 6.0 0.00 0.00 0.00 48 1016.8
20260904013657 72 148 5.0 7.0 0.00 0.00 0.00 47 1016.7
20260904013153 73 138 4.0 7.0 0.00 0.00 0.00 46 1016.7
20260904012649 73 158 5.0 5.0 0.00 0.00 0.00 46 1016.9
20260904012148 74 160 4.0 6.0 0.00 0.00 0.00 45 1016.7
20260904011647 75 157 4.0 6.0 0.00 0.00 0.00 44 1016.8
20260904011143 76 144 6.0 8.0 0.00 0.00 0.00 42 1016.6
20260904010638 77 145 6.0 9.0 0.00 0.00 0.00 40 1016.6
20260904010134 78 141 7.0 8.0 0.00 0.00 0.00 39 1016.8
20260904005630 79 151 7.0 9.0 0.00 0.00 0.00 37 1016.7
20260904005125 79 133 8.0 10.0 0.00 0.00 0.00 36 1016.6
20260904004620 80 164 7.0 11.0 0.00 0.00 0.00 34 1016.4
20260904004120 81 151 11.0 14.0 0.00 0.00 0.00 32 1016.6
20260904003616 81 145 6.0 10.0 0.00 0.00 0.00 30 1016.3
20260904003111 82 159 8.0 9.0 0.00 0.00 0.00 29 1016.3
20260904002607 82 161 9.0 11.0 0.00 0.00 0.00 28 1016.4
20260904002102 83 180 7.0 9.0 0.00 0.00 0.00 28 1016.6
20260904001558 83 190 9.0 15.0 0.00 0.00 0.00 26 1016.7
20260904001057 83 173 11.0 13.0 0.00 0.00 0.00 27 1016.4
20260904000556 83 187 9.0 13.0 0.00 0.00 0.00 26 1016.7
20260904000047 84 167 8.0 14.0 0.00 0.00 0.00 27 1016.7
20260903235547 84 166 12.0 14.0 0.00 0.00 0.00 26 1016.7
20260903235043 84 179 9.0 14.0 0.00 0.00 0.00 26 1016.7
20260903234538 84 179 9.0 11.0 0.00 0.00 0.00 25 1016.4
20260903234034 84 202 11.0 15.0 0.00 0.00 0.00 27 1016.7
20260903233530 84 209 12.0 16.0 0.00 0.00 0.00 26 1016.7
20260903233025 84 175 9.0 18.0 0.00 0.00 0.00 26 1016.7
20260903232521 84 131 11.0 16.0 0.00 0.00 0.00 26 1016.6
20260903232020 84 190 12.0 15.0 0.00 0.00 0.00 26 1016.6
20260903231514 85 175 7.0 9.0 0.00 0.00 0.00 26 1016.6
20260903231009 85 220 5.0 9.0 0.00 0.00 0.00 26 1016.6
20260903230506 85 195 10.0 14.0 0.00 0.00 0.00 26 1016.7
20260903230002 85 166 9.0 10.0 0.00 0.00 0.00 27 1016.7
20260903225456 85 175 7.0 11.0 0.00 0.00 0.00 24 1016.6
20260903224953 84 134 5.0 13.0 0.00 0.00 0.00 25 1016.7
20260903224449 85 188 9.0 11.0 0.00 0.00 0.00 26 1016.6
20260903223944 85 193 10.0 14.0 0.00 0.00 0.00 27 1016.6
20260903223444 85 168 5.0 9.0 0.00 0.00 0.00 25 1016.8
20260903222943 84 181 5.0 9.0 0.00 0.00 0.00 26 1016.8
20260903222438 84 213 9.0 9.0 0.00 0.00 0.00 28 1016.8
20260903221937 84 222 8.0 9.0 0.00 0.00 0.00 30 1016.8
20260903221433 84 234 8.0 11.0 0.00 0.00 0.00 32 1016.7
20260903220930 85 216 10.0 11.0 0.00 0.00 0.00 28 1016.6
20260903220430 86 149 9.0 11.0 0.00 0.00 0.00 25 1016.9
20260903215927 85 178 1.0 6.0 0.00 0.00 0.00 25 1016.9
20260903215424 85 191 0.0 5.0 0.00 0.00 0.00 25 1017.0
20260903214922 84 236 6.0 8.0 0.00 0.00 0.00 31 1017.0
20260903214418 85 217 9.0 14.0 0.00 0.00 0.00 27 1016.8
20260903213918 85 186 7.0 14.0 0.00 0.00 0.00 27 1016.8
20260903213413 84 153 9.0 10.0 0.00 0.00 0.00 27 1017.0
20260903212909 84 125 6.0 10.0 0.00 0.00 0.00 29 1016.9
20260903212405 84 222 7.0 9.0 0.00 0.00 0.00 30 1017.1
20260903211905 84 137 14.0 17.0 0.00 0.00 0.00 28 1017.1
20260903211400 84 160 11.0 14.0 0.00 0.00 0.00 28 1017.3
20260903210856 84 209 9.0 13.0 0.00 0.00 0.00 34 1017.4
20260903210351 84 163 7.0 8.0 0.00 0.00 0.00 28 1017.3
20260903205850 84 157 7.0 8.0 0.00 0.00 0.00 29 1017.1
20260903205350 84 154 14.0 21.0 0.00 0.00 0.00 29 1017.3
20260903204845 84 173 4.0 16.0 0.00 0.00 0.00 34 1017.4
20260903204341 83 147 16.0 20.0 0.00 0.00 0.00 30 1017.4
20260903203836 82 124 10.0 14.0 0.00 0.00 0.00 31 1017.6
20260903203332 82 138 11.0 14.0 0.00 0.00 0.00 30 1017.5
20260903202831 82 224 8.0 11.0 0.00 0.00 0.00 33 1017.6
20260903202328 80 189 6.0 13.0 0.00 0.00 0.00 34 1017.6
20260903201827 82 211 9.0 13.0 0.00 0.00 0.00 33 1017.5
20260903201323 83 226 9.0 14.0 0.00 0.00 0.00 32 1017.6
20260903200820 83 174 10.0 11.0 0.00 0.00 0.00 31 1017.4
20260903200317 84 185 6.0 11.0 0.00 0.00 0.00 30 1017.9
20260903195812 83 185 11.0 13.0 0.00 0.00 0.00 33 1017.4
20260903195308 82 181 6.0 9.0 0.00 0.00 0.00 33 1017.6
20260903194803 83 266 8.0 13.0 0.00 0.00 0.00 35 1017.9
20260903194258 83 216 6.0 13.0 0.00 0.00 0.00 34 1017.3
20260903193754 83 219 6.0 13.0 0.00 0.00 0.00 33 1017.6
20260903193249 83 219 4.0 7.0 0.00 0.00 0.00 34 1018.0
20260903192745 82 172 7.0 10.0 0.00 0.00 0.00 30 1017.9
20260903192241 82 218 2.0 8.0 0.00 0.00 0.00 30 1018.0
20260903191737 83 203 3.0 7.0 0.00 0.00 0.00 28 1018.1
20260903191232 82 226 4.0 7.0 0.00 0.00 0.00 28 1018.0
20260903190726 82 265 10.0 13.0 0.00 0.00 0.00 35 1018.0
20260903190220 82 245 10.0 11.0 0.00 0.00 0.00 31 1018.1
20260903185710 82 151 5.0 9.0 0.00 0.00 0.00 29 1018.0
20260903185204 82 185 8.0 13.0 0.00 0.00 0.00 35 1018.0
20260903184701 81 215 3.0 7.0 0.00 0.00 0.00 31 1018.2
20260903184157 81 207 12.0 14.0 0.00 0.00 0.00 35 1018.2
20260903183655 82 223 5.0 9.0 0.00 0.00 0.00 33 1018.4
20260903183150 81 245 11.0 14.0 0.00 0.00 0.00 34 1018.1
20260903182644 81 247 11.0 15.0 0.00 0.00 0.00 30 1018.3
20260903182140 82 216 7.0 14.0 0.00 0.00 0.00 28 1018.6
20260903181637 80 221 3.0 7.0 0.00 0.00 0.00 34 1018.4
20260903181132 80 296 6.0 9.0 0.00 0.00 0.00 32 1018.2
20260903180628 80 310 13.0 14.0 0.00 0.00 0.00 33 1018.6
20260903180122 81 241 8.0 16.0 0.00 0.00 0.00 38 1018.8
20260903175622 80 222 2.0 6.0 0.00 0.00 0.00 32 1018.8
20260903175121 80 227 9.0 18.0 0.00 0.00 0.00 31 1018.6
20260903174616 80 241 9.0 16.0 0.00 0.00 0.00 40 1019.0
20260903174111 80 221 11.0 13.0 0.00 0.00 0.00 39 1019.1
20260903173605 79 244 9.0 11.0 0.00 0.00 0.00 34 1018.9
20260903173102 79 215 10.0 14.0 0.00 0.00 0.00 42 1018.7
20260903172556 78 235 7.0 14.0 0.00 0.00 0.00 44 1018.7
20260903172052 78 209 8.0 10.0 0.00 0.00 0.00 49 1018.9
20260903171551 77 185 13.0 17.0 0.00 0.00 0.00 44 1018.6
20260903171047 78 236 11.0 17.0 0.00 0.00 0.00 47 1018.9
20260903170546 77 200 10.0 15.0 0.00 0.00 0.00 48 1019.1
20260903170042 76 215 10.0 11.0 0.00 0.00 0.00 48 1019.0
20260903165538 76 195 7.0 13.0 0.00 0.00 0.00 55 1018.9
20260903165034 76 200 10.0 14.0 0.00 0.00 0.00 50 1018.7
20260903164529 77 192 14.0 16.0 0.00 0.00 0.00 49 1018.7
20260903164025 76 178 11.0 15.0 0.00 0.00 0.00 49 1018.9
20260903163520 75 211 10.0 14.0 0.00 0.00 0.00 49 1018.8
20260903163016 76 225 14.0 15.0 0.00 0.00 0.00 51 1018.7
20260903162512 76 183 11.0 14.0 0.00 0.00 0.00 51 1018.7
20260903162007 76 213 10.0 11.0 0.00 0.00 0.00 49 1018.6
20260903161502 76 202 8.0 13.0 0.00 0.00 0.00 50 1018.7
20260903160959 76 208 11.0 21.0 0.00 0.00 0.00 50 1018.7
20260903160457 75 237 14.0 18.0 0.00 0.00 0.00 50 1018.4
20260903155956 75 220 14.0 23.0 0.00 0.00 0.00 50 1018.7
20260903155451 75 225 10.0 27.0 0.00 0.00 0.00 50 1018.6
20260903154947 75 217 14.0 20.0 0.00 0.00 0.00 50 1018.7
20260903154442 75 229 9.0 13.0 0.00 0.00 0.00 53 1018.8
20260903153938 75 224 9.0 13.0 0.00 0.00 0.00 55 1018.7
20260903153434 74 208 12.0 22.0 0.00 0.00 0.00 53 1018.7
20260903152930 74 217 11.0 18.0 0.00 0.00 0.00 53 1018.7
20260903152425 73 224 9.0 13.0 0.00 0.00 0.00 57 1018.7
20260903151921 73 214 7.0 10.0 0.00 0.00 0.00 58 1018.7
20260903151409 73 207 7.0 13.0 0.00 0.00 0.00 57 1018.7
20260903150904 72 221 7.0 11.0 0.00 0.00 0.00 57 1018.9
20260903150359 71 209 5.0 10.0 0.00 0.00 0.00 61 1018.8
20260903145853 71 227 10.0 14.0 0.00 0.00 0.00 64 1018.8
20260903145348 71 228 9.0 11.0 0.00 0.00 0.00 58 1018.7
20260903144847 71 220 6.0 9.0 0.00 0.00 0.00 58 1018.7
20260903144343 70 218 3.0 8.0 0.00 0.00 0.00 62 1018.7
20260903143838 70 211 4.0 6.0 0.00 0.00 0.00 60 1018.4
20260903143336 69 228 3.0 6.0 0.00 0.00 0.00 58 1018.6
20260903142831 69 198 3.0 5.0 0.00 0.00 0.00 64 1018.4
20260903142327 69 235 5.0 9.0 0.00 0.00 0.00 59 1018.6
20260903141823 68 237 3.0 6.0 0.00 0.00 0.00 61 1018.3
20260903141318 67 200 3.0 6.0 0.00 0.00 0.00 67 1018.6
20260903140818 67 220 6.0 11.0 0.00 0.00 0.00 62 1018.4
20260903140313 65 221 6.0 7.0 0.00 0.00 0.00 66 1018.4
20260903135809 65 299 7.0 9.0 0.00 0.00 0.00 70 1018.4
20260903135306 64 174 0.0 0.0 0.00 0.00 0.00 69 1018.3
20260903134803 61 181 0.0 1.0 0.00 0.00 0.00 72 1018.2
20260903134259 60 214 4.0 6.0 0.00 0.00 0.00 74 1018.0
20260903133756 59 201 4.0 9.0 0.00 0.00 0.00 75 1018.2
20260903133252 59 200 4.0 7.0 0.00 0.00 0.00 73 1018.1
20260903132746 57 209 5.0 10.0 0.00 0.00 0.00 75 1018.0
20260903132242 57 216 4.0 8.0 0.00 0.00 0.00 75 1018.0
20260903131737 57 243 4.0 13.0 0.00 0.00 0.00 75 1017.9
20260903131236 57 188 0.0 0.0 0.00 0.00 0.00 75 1017.7
20260903130731 56 198 0.0 1.0 0.00 0.00 0.00 75 1017.6
20260903130226 55 199 1.0 3.0 0.00 0.00 0.00 76 1017.7
20260903125724 54 198 0.0 1.0 0.00 0.00 0.00 77 1017.7
20260903125220 53 159 1.0 3.0 0.00 0.00 0.00 78 1017.9
20260903124719 54 194 0.0 0.0 0.00 0.00 0.00 76 1017.9
20260903124214 53 185 0.0 0.0 0.00 0.00 0.00 77 1017.7
20260903123713 53 206 1.0 5.0 0.00 0.00 0.00 77 1017.6
20260903123212 53 280 5.0 6.0 0.00 0.00 0.00 77 1017.6
20260903122711 53 197 0.0 0.0 0.00 0.00 0.00 77 1017.4
20260903122206 53 257 4.0 5.0 0.00 0.00 0.00 79 1017.4
20260903121704 53 256 3.0 3.0 0.00 0.00 0.00 79 1017.5
20260903121201 54 315 5.0 6.0 0.00 0.00 0.00 78 1017.5
20260903120701 54 281 4.0 5.0 0.00 0.00 0.00 77 1017.3
20260903120154 55 223 4.0 6.0 0.00 0.00 0.00 76 1017.3
20260903115653 56 213 3.0 5.0 0.00 0.00 0.00 74 1017.0
20260903115148 55 221 3.0 6.0 0.00 0.00 0.00 75 1017.1
20260903114643 55 262 5.0 6.0 0.00 0.00 0.00 76 1017.1
20260903114138 54 238 4.0 7.0 0.00 0.00 0.00 76 1017.1
20260903113633 54 242 4.0 5.0 0.00 0.00 0.00 77 1017.3
20260903113124 54 277 3.0 5.0 0.00 0.00 0.00 78 1017.4
20260903112620 54 267 3.0 3.0 0.00 0.00 0.00 78 1017.4